Weather History for Zurich Airport, Switzerland

Change the Weather History Date:

Wednesday, January 8, 2014

  Actual Average Record
Temperature  
Mean Temperature 46 °F -  
Max Temperature 54 °F 37 °F 57 °F (2011)
Min Temperature 37 °F 26 °F 15 °F (2009)
Degree Days  
Heating Degree Days 20    
Moisture  
Dew Point 39 °F    
Average Humidity 77    
Maximum Humidity 100    
Minimum Humidity 50    
Precipitation  
Precipitation 0.00 in - - ()
Sea Level Pressure  
Sea Level Pressure 30.20 in    
Wind  
Wind Speed 4 mph ()    
Max Wind Speed 9 mph    
Max Gust Speed -    
Visibility 8.7 miles    
Events Fog , Rain    
Averages and records for this station are not official NWS values.
T = Trace of Precipitation, MM = Missing Value Source: Averaged Metar Reports

Daily Weather History Graph

Daily Weather History Graph

Search for Another Location

Airport:

Trip Planner

Search our weather history database for the weather conditions in past years. The results will help you decide how hot, cold, wet, or windy it might be!

Date:

Astronomy

Jan. 08, 2014 Rise Set
Actual Time 8:12 AM CET 4:52 PM CET
Civil Twilight 7:37 AM CET 5:28 PM CET
Nautical Twilight 6:58 AM CET 6:06 PM CET
Astronomical Twilight 6:21 AM CET 6:43 PM CET
Moon 11:51 AM CET (1/8) 12:44 AM CET (1/8)
Length of Visible Light 9h 50m
Length of Day
8h 40m
First Quarter, 53% of the Moon is Illuminated
Jan 8
First Quarter
Jan 16
Full
Jan 24
Last Quarter
Jan 30
New
Feb 6
First Quarter

Hourly Weather History & Observations

Time (CET) Temp. Windchill Dew Point Humidity Pressure Visibility Wind Dir Wind Speed Gust Speed Precip Events Conditions
12:00 AM 39 °F - 35 °F 81% 30.19 in - SE 4.6 mph - -  
12:20 AM 41.0 °F 38.0 °F 35.6 °F 81% 30.12 in - ESE 4.6 mph - N/A   Clear
12:50 AM 42.8 °F 39.3 °F 35.6 °F 76% 30.15 in 6.2 mi SE 5.8 mph - N/A   Mostly Cloudy
1:00 AM 42 °F - 36 °F 73% 30.18 in 19 mi ESE 4.6 mph - -   Mostly Cloudy
1:50 AM 42.8 °F 40.1 °F 35.6 °F 76% 30.15 in 6.2 mi SE 4.6 mph - N/A   Mostly Cloudy
2:00 AM 43 °F - 36 °F 69% 30.19 in - SSE 5.8 mph - -  
2:20 AM 44.6 °F - 35.6 °F 71% 30.18 in 6.2 mi Variable 1.2 mph - N/A   Mostly Cloudy
2:50 AM 42.8 °F - 37.4 °F 81% 30.18 in 6.2 mi Variable 1.2 mph - N/A   Mostly Cloudy
3:00 AM 44 °F - 38 °F 71% 30.22 in - SE 2.3 mph - -  
3:20 AM 42.8 °F 40.1 °F 39.2 °F 87% 30.18 in 6.2 mi SSE 4.6 mph - N/A Rain Light Rain
3:50 AM 42.8 °F 39.3 °F 39.2 °F 87% 30.18 in 6.2 mi SSE 5.8 mph - N/A   Mostly Cloudy
4:00 AM 42 °F - 39 °F 85% 30.23 in 19 mi SSE 6.9 mph - - Rain Light Rain Showers
4:20 AM 42.8 °F 38.0 °F 37.4 °F 81% 30.18 in 6.2 mi SSE 8.1 mph - N/A   Mostly Cloudy
4:50 AM 44.6 °F 43.1 °F 37.4 °F 76% 30.18 in 6.2 mi South 3.5 mph - N/A   Mostly Cloudy
5:00 AM 45 °F - 38 °F 67% 30.23 in - SE 2.3 mph - -  
5:20 AM 44.6 °F - 37.4 °F 76% 30.21 in 6.2 mi Variable 1.2 mph - N/A   Mostly Cloudy
5:50 AM 42.8 °F 38.0 °F 39.2 °F 87% 30.21 in 6.2 mi SSE 8.1 mph - N/A   Mostly Cloudy
6:00 AM 44 °F - 39 °F 76% 30.25 in - South 8.1 mph - -  
6:20 AM 44.6 °F 42.2 °F 37.4 °F 76% 30.21 in 6.2 mi South 4.6 mph - N/A Rain Light Rain Showers
6:50 AM 44.6 °F 41.4 °F 39.2 °F 81% 30.21 in 6.2 mi South 5.8 mph - N/A Rain Light Rain Showers
7:00 AM 46 °F - 40 °F 74% 30.25 in 19 mi SSW 9.2 mph - - Rain Light Rain Showers
7:20 AM 44.6 °F 40.7 °F 39.2 °F 81% 30.24 in 6.2 mi South 6.9 mph - N/A   Mostly Cloudy
7:50 AM 44.6 °F 40.7 °F 39.2 °F 81% 30.24 in 6.2 mi South 6.9 mph - N/A   Mostly Cloudy
8:00 AM 45 °F - 40 °F 75% 30.27 in - South 8.1 mph - -  
8:20 AM 44.6 °F 39.7 °F 39.2 °F 81% 30.24 in 6.2 mi South 9.2 mph - N/A   Mostly Cloudy
8:50 AM 41.0 °F 36.4 °F 37.4 °F 87% 30.24 in - SE 6.9 mph - N/A   Clear
9:00 AM 43 °F - 39 °F 81% 30.29 in - South 6.9 mph - -  
9:20 AM 42.8 °F 38.6 °F 39.2 °F 87% 30.24 in 6.2 mi SSE 6.9 mph - N/A   Scattered Clouds
9:50 AM 42.8 °F 39.3 °F 39.2 °F 87% 30.24 in 6.2 mi ESE 5.8 mph - N/A   Scattered Clouds
10:00 AM 45 °F - 40 °F 75% 30.29 in 19 mi SSE 4.6 mph - -   Partly Cloudy
10:20 AM 46.4 °F 44.3 °F 41.0 °F 81% 30.27 in 6.2 mi ESE 4.6 mph - N/A   Scattered Clouds
10:50 AM 48.2 °F - 41.0 °F 76% 30.24 in - SE 4.6 mph - N/A   Clear
11:00 AM 50 °F - 40 °F 59% 30.27 in - SSE 3.5 mph - -  
11:20 AM 50.0 °F - 41.0 °F 71% 30.24 in - South 4.6 mph - N/A   Clear
11:50 AM 51.8 °F - 42.8 °F 71% 30.24 in - SSE 5.8 mph - N/A   Clear
12:00 PM 51 °F - 41 °F 60% 30.25 in - SE 4.6 mph - -  
12:20 PM 51.8 °F - 41.0 °F 67% 30.24 in - SSE 4.6 mph - N/A   Clear
12:50 PM 53.6 °F - 41.0 °F 62% 30.21 in - SE 3.5 mph - N/A   Clear
1:00 PM 53 °F - 41 °F 54% 30.22 in 25 mi SE 2.3 mph - -   Partly Cloudy
1:20 PM 55.4 °F - 41.0 °F 58% 30.21 in 6.2 mi Variable 2.3 mph - N/A   Scattered Clouds
1:50 PM 55.4 °F - 41.0 °F 58% 30.18 in - Variable 3.5 mph - N/A   Clear
2:00 PM 54 °F - 41 °F 50% 30.20 in - SSE 2.3 mph - -  
2:20 PM 55.4 °F - 41.0 °F 58% 30.18 in - SSE 3.5 mph - N/A   Clear
2:50 PM 55.4 °F - 42.8 °F 63% 30.18 in - ESE 3.5 mph - N/A   Clear
3:00 PM 54 °F - 43 °F 55% 30.19 in - SE 3.5 mph - -  
3:20 PM 55.4 °F - 42.8 °F 63% 30.18 in - Variable 2.3 mph - N/A   Clear
3:50 PM 53.6 °F - 41.0 °F 62% 30.18 in - Variable 2.3 mph - N/A   Clear
4:00 PM 54 °F - 41 °F 52% 30.19 in 28 mi ESE 2.3 mph - -   Scattered Clouds
4:20 PM 51.8 °F - 41.0 °F 67% 30.18 in - Variable 1.2 mph - N/A   Clear
4:50 PM 50.0 °F - 41.0 °F 71% 30.18 in - Variable 1.2 mph - N/A   Clear
5:00 PM 52 °F - 42 °F 58% 30.20 in - SE 1.2 mph - -  
5:20 PM 46.4 °F 45.2 °F 41.0 °F 81% 30.18 in - SE 3.5 mph - N/A   Clear
5:50 PM 44.6 °F 43.1 °F 41.0 °F 87% 30.18 in - SE 3.5 mph - N/A   Clear
6:00 PM 44 °F - 41 °F 84% 30.21 in - SE 5.8 mph - -  
6:20 PM 42.8 °F 41.1 °F 39.2 °F 87% 30.18 in - SE 3.5 mph - N/A   Clear
6:50 PM 42.8 °F - 39.2 °F 87% 30.18 in - Variable 2.3 mph - N/A   Clear
7:00 PM 45 °F - 41 °F 80% 30.21 in 25 mi SW 1.2 mph - -   Scattered Clouds
7:20 PM 42.8 °F - 41.0 °F 93% 30.18 in - Calm Calm - N/A   Clear
7:50 PM 41.0 °F - 37.4 °F 87% 30.18 in - Variable 1.2 mph - N/A   Clear
8:00 PM 44 °F - 40 °F 81% 30.21 in - North 1.2 mph - -  
8:20 PM 42.8 °F - 39.2 °F 87% 30.18 in - East 1.2 mph - N/A   Clear
8:50 PM 42.8 °F - 41.0 °F 93% 30.15 in - Variable 1.2 mph - N/A   Clear
9:00 PM 42 °F - 40 °F 88% 30.21 in - NNE 1.2 mph - -  
9:20 PM 39.2 °F - 37.4 °F 93% 30.15 in - Calm Calm - N/A   Clear
9:50 PM 39.2 °F 35.9 °F 39.2 °F 100% 30.15 in - WNW 4.6 mph - N/A   Clear
10:00 PM 38 °F - 37 °F 97% 30.22 in 19 mi WNW 4.6 mph - -   Mostly Cloudy
10:20 PM 37.4 °F 34.9 °F 35.6 °F 93% 30.15 in - NW 3.5 mph - N/A   Clear
10:50 PM 39.2 °F - 39.2 °F 100% 30.15 in - Variable 1.2 mph - N/A   Clear
11:00 PM 40 °F - 39 °F 96% 30.21 in - WNW 1.2 mph - -  
11:20 PM 37.4 °F - 35.6 °F 93% 30.15 in 6.2 mi Variable 2.3 mph - N/A Fog Shallow Fog
11:50 PM 39.2 °F - 37.4 °F 93% 30.15 in 6.2 mi Variable 1.2 mph - N/A Fog Shallow Fog